�������l�o���
Date,Time,MP-1(��Sv/h),MP-2(��Sv/h),MP-3(��Sv/h),MP-4(��Sv/h),MP-5(��Sv/h),MP-6(��Sv/h),MP-7(��Sv/h),����,����(m/s),���J
2021/04/26,00:00,0.174,0.157,0.258,0.245,0.238,0.136,0.085,�k�k��,9.8,��
2021/04/26,00:10,0.174,0.156,0.259,0.246,0.239,0.136,0.083,�k�k��,8.6,��
2021/04/26,00:20,0.175,0.156,0.259,0.245,0.238,0.135,0.084,�k�k��,9.3,��
2021/04/26,00:30,0.175,0.156,0.258,0.245,0.237,0.136,0.084,�k�k��,8.1,��
2021/04/26,00:40,0.174,0.157,0.260,0.244,0.239,0.136,0.083,�k�k��,9.2,��
2021/04/26,00:50,0.175,0.156,0.259,0.244,0.238,0.135,0.084,�k,7.4,��
2021/04/26,01:00,0.174,0.157,0.258,0.244,0.238,0.137,0.084,�k�k��,6.3,��
2021/04/26,01:10,0.174,0.156,0.260,0.245,0.237,0.136,0.084,�k�k��,8.3,��
2021/04/26,01:20,0.174,0.156,0.260,0.244,0.239,0.136,0.084,�k�k��,9.2,��
2021/04/26,01:30,0.174,0.157,0.260,0.244,0.237,0.136,0.084,�k��,8.5,��
2021/04/26,01:40,0.175,0.157,0.259,0.245,0.238,0.136,0.084,�k��,6.4,��
2021/04/26,01:50,0.173,0.157,0.258,0.246,0.237,0.136,0.084,�k��,6.7,��
2021/04/26,02:00,0.174,0.157,0.259,0.244,0.237,0.135,0.084,�k��,7.3,��
2021/04/26,02:10,0.175,0.156,0.259,0.245,0.238,0.135,0.084,�k��,5.2,��
2021/04/26,02:20,0.175,0.157,0.259,0.244,0.238,0.135,0.083,�k��,3.2,��
2021/04/26,02:30,0.174,0.155,0.259,0.245,0.237,0.136,0.083,�k�k��,4.0,��
2021/04/26,02:40,0.174,0.156,0.258,0.245,0.238,0.135,0.084,�k��,6.5,��
2021/04/26,02:50,0.174,0.157,0.259,0.244,0.238,0.135,0.083,�k��,6.8,��
2021/04/26,03:00,0.174,0.157,0.259,0.243,0.238,0.135,0.084,�k�k��,7.2,��
2021/04/26,03:10,0.174,0.156,0.259,0.245,0.238,0.136,0.084,�k��,9.2,��
2021/04/26,03:20,0.174,0.156,0.259,0.244,0.239,0.136,0.084,�k��,9.0,��
2021/04/26,03:30,0.173,0.157,0.258,0.246,0.238,0.136,0.084,�k��,9.5,��
2021/04/26,03:40,0.174,0.156,0.259,0.245,0.239,0.135,0.084,�k�k��,8.8,��
2021/04/26,03:50,0.174,0.157,0.260,0.244,0.238,0.137,0.083,�k�k��,7.6,��
2021/04/26,04:00,0.175,0.156,0.259,0.245,0.237,0.135,0.084,�k,7.9,��
2021/04/26,04:10,0.174,0.156,0.258,0.245,0.239,0.135,0.083,�k,5.5,��
2021/04/26,04:20,0.175,0.155,0.259,0.244,0.239,0.137,0.084,�k,5.7,��
2021/04/26,04:30,0.176,0.157,0.260,0.245,0.237,0.135,0.084,�k�k��,5.0,��
2021/04/26,04:40,0.174,0.157,0.260,0.246,0.239,0.136,0.084,�k�k��,5.5,��
2021/04/26,04:50,0.173,0.157,0.259,0.244,0.239,0.135,0.084,�k�k��,6.1,��
2021/04/26,05:00,0.175,0.156,0.259,0.245,0.239,0.136,0.085,�k,6.2,��
2021/04/26,05:10,0.175,0.156,0.258,0.246,0.238,0.135,0.084,�k�k��,5.8,��
2021/04/26,05:20,0.173,0.156,0.259,0.246,0.238,0.136,0.084,�k�k��,5.9,��
2021/04/26,05:30,0.173,0.157,0.258,0.244,0.237,0.135,0.084,�k��,4.8,��
2021/04/26,05:40,0.175,0.156,0.259,0.246,0.238,0.135,0.083,�k��,5.1,��
2021/04/26,05:50,0.175,0.156,0.259,0.244,0.237,0.136,0.084,�k�k��,5.5,��
2021/04/26,06:00,0.174,0.156,0.259,0.245,0.238,0.135,0.083,�k��,5.6,��
2021/04/26,06:10,0.174,0.155,0.258,0.245,0.238,0.136,0.083,�k��,8.1,��
2021/04/26,06:20,0.174,0.156,0.259,0.245,0.238,0.136,0.083,�k��,7.6,��
2021/04/26,06:30,0.175,0.156,0.258,0.244,0.237,0.136,0.083,�k��,7.7,��
2021/04/26,06:40,0.174,0.157,0.258,0.243,0.238,0.135,0.084,�k��,7.8,��
2021/04/26,06:50,0.174,0.155,0.257,0.244,0.238,0.135,0.083,�k��,8.1,��
2021/04/26,07:00,0.175,0.156,0.258,0.243,0.237,0.135,0.084,�k��,5.5,��
2021/04/26,07:10,0.174,0.156,0.258,0.244,0.239,0.137,0.084,�k��,6.2,��
2021/04/26,07:20,0.175,0.156,0.257,0.244,0.237,0.135,0.083,�k��,8.5,��
2021/04/26,07:30,0.174,0.155,0.259,0.242,0.238,0.136,0.083,�k�k��,6.5,��
2021/04/26,07:40,0.174,0.155,0.257,0.243,0.239,0.136,0.083,�k�k��,8.6,��
2021/04/26,07:50,0.174,0.155,0.256,0.243,0.237,0.135,0.083,�k��,9.5,��
2021/04/26,08:00,0.176,0.157,0.257,0.243,0.238,0.135,0.084,�k�k��,8.7,��
2021/04/26,08:10,0.173,0.156,0.256,0.243,0.239,0.137,0.083,�k�k��,9.8,��
2021/04/26,08:20,0.174,0.156,0.259,0.244,0.236,0.135,0.084,�k�k��,7.3,��
2021/04/26,08:30,0.175,0.155,0.258,0.245,0.239,0.135,0.084,�k��,7.6,��
2021/04/26,08:40,0.174,0.156,0.258,0.241,0.239,0.134,0.083,�k�k��,10.0,��
2021/04/26,08:50,0.174,0.155,0.258,0.245,0.238,0.135,0.084,�k�k��,8.5,��
2021/04/26,09:00,0.175,0.156,0.257,0.242,0.239,0.135,0.084,�k�k��,10.4,��
2021/04/26,09:10,0.174,0.155,0.259,0.244,0.237,0.136,0.083,�k�k��,11.5,��
2021/04/26,09:20,0.174,0.156,0.257,0.241,0.239,0.135,0.083,�k�k��,9.8,��
2021/04/26,09:30,0.174,0.156,0.259,0.245,0.237,0.134,0.084,�k�k��,8.2,��
2021/04/26,09:40,0.175,0.156,0.257,0.242,0.239,0.135,0.084,�k�k��,8.3,��
2021/04/26,09:50,0.175,0.156,0.260,0.244,0.238,0.135,0.084,�k�k��,10.9,��
2021/04/26,10:00,0.174,0.156,0.257,0.243,0.238,0.136,0.084,�k�k��,7.0,��
2021/04/26,10:10,0.174,0.157,0.260,0.242,0.238,0.136,0.085,�k��,9.2,��
2021/04/26,10:20,0.175,0.157,0.257,0.245,0.236,0.135,0.083,�k�k��,8.4,��
2021/04/26,10:30,0.175,0.156,0.259,0.242,0.239,0.135,0.084,�k��,6.9,��
2021/04/26,10:40,0.174,0.156,0.259,0.243,0.237,0.136,0.083,�k�k��,6.9,��
2021/04/26,10:50,0.173,0.156,0.259,0.244,0.239,0.135,0.084,�k,6.3,��
2021/04/26,11:00,0.174,0.157,0.260,0.246,0.237,0.135,0.083,�k�k��,5.8,��
2021/04/26,11:10,0.174,0.156,0.259,0.243,0.241,0.135,0.084,�k�k��,9.6,��
2021/04/26,11:20,0.175,0.156,0.259,0.245,0.237,0.135,0.084,�k��,9.3,��
2021/04/26,11:30,0.174,0.155,0.258,0.243,0.240,0.137,0.084,�k��,9.0,��
2021/04/26,11:40,0.175,0.156,0.260,0.245,0.238,0.135,0.083,�k�k��,10.9,��
2021/04/26,11:50,0.174,0.155,0.257,0.243,0.240,0.136,0.084,�k�k��,8.6,��
2021/04/26,12:00,0.174,0.156,0.260,0.244,0.239,0.136,0.083,�k�k��,8.6,��
2021/04/26,12:10,0.174,0.155,0.257,0.244,0.237,0.135,0.084,�k�k��,8.2,��
2021/04/26,12:20,0.176,0.157,0.260,0.244,0.239,0.136,0.084,�k��,7.9,��
2021/04/26,12:30,0.174,0.155,0.258,0.244,0.237,0.135,0.083,�k�k��,7.8,��
2021/04/26,12:40,0.175,0.157,0.261,0.243,0.239,0.135,0.084,�k�k��,7.6,��
2021/04/26,12:50,0.175,0.156,0.259,0.246,0.238,0.136,0.084,���k��,5.1,��
2021/04/26,13:00,0.176,0.157,0.261,0.243,0.237,0.135,0.083,�k��,8.5,��
2021/04/26,13:10,0.175,0.156,0.259,0.245,0.238,0.135,0.084,�k�k��,8.1,��
2021/04/26,13:20,0.174,0.157,0.260,0.244,0.237,0.136,0.084,�k�k��,5.7,��
2021/04/26,13:30,0.175,0.156,0.259,0.245,0.239,0.136,0.084,�k��,7.3,��
2021/04/26,13:40,0.173,0.157,0.261,0.245,0.239,0.135,0.083,�k�k��,7.9,��
2021/04/26,13:50,0.175,0.156,0.259,0.246,0.240,0.135,0.084,�k�k��,6.9,��
2021/04/26,14:00,0.174,0.158,0.261,0.245,0.236,0.136,0.084,�k�k��,10.1,��
2021/04/26,14:10,0.174,0.155,0.259,0.245,0.239,0.136,0.083,�k��,6.9,��
2021/04/26,14:20,0.175,0.156,0.259,0.245,0.238,0.136,0.083,�k��,9.3,��
2021/04/26,14:30,0.175,0.156,0.261,0.245,0.240,0.136,0.084,�k��,8.4,��
2021/04/26,14:40,0.176,0.157,0.260,0.244,0.239,0.136,0.084,�k�k��,7.0,��
2021/04/26,14:50,0.175,0.156,0.262,0.246,0.240,0.135,0.083,�k�k��,7.3,��
2021/04/26,15:00,0.175,0.157,0.260,0.245,0.239,0.136,0.084,�k�k��,5.8,��
2021/04/26,15:10,0.175,0.156,0.260,0.245,0.239,0.136,0.084,�k��,5.9,��
2021/04/26,15:20,0.174,0.156,0.259,0.245,0.239,0.135,0.084,�k�k��,5.8,��
2021/04/26,15:30,0.176,0.157,0.259,0.246,0.239,0.135,0.084,�k�k��,6.4,��
2021/04/26,15:40,0.176,0.156,0.259,0.246,0.240,0.136,0.084,�k�k��,5.8,��
2021/04/26,15:50,0.174,0.157,0.261,0.245,0.239,0.136,0.084,�k��,5.7,��
2021/04/26,16:00,0.174,0.156,0.261,0.246,0.240,0.135,0.084,�k�k��,7.4,��
2021/04/26,16:10,0.174,0.156,0.259,0.246,0.238,0.136,0.083,�k�k��,5.8,��
2021/04/26,16:20,0.175,0.157,0.260,0.245,0.240,0.136,0.084,�k��,6.6,��
2021/04/26,16:30,0.174,0.156,0.259,0.245,0.237,0.136,0.084,�k�k��,5.6,��
2021/04/26,16:40,0.175,0.156,0.259,0.244,0.239,0.137,0.084,�k�k��,5.0,��
2021/04/26,16:50,0.175,0.157,0.260,0.245,0.238,0.136,0.083,�k�k��,4.2,��
2021/04/26,17:00,0.175,0.157,0.260,0.247,0.239,0.135,0.084,�k�k��,4.8,��
2021/04/26,17:10,0.174,0.158,0.259,0.246,0.239,0.136,0.084,�k,3.4,��
2021/04/26,17:20,0.175,0.156,0.260,0.245,0.239,0.136,0.084,�k,4.3,��
2021/04/26,17:30,0.175,0.157,0.261,0.246,0.240,0.136,0.084,�k,4.8,��
2021/04/26,17:40,0.175,0.157,0.260,0.246,0.238,0.137,0.083,�k,5.6,��
2021/04/26,17:50,0.174,0.156,0.259,0.245,0.239,0.136,0.084,�k,5.7,��
2021/04/26,18:00,0.174,0.157,0.258,0.247,0.239,0.136,0.084,�k,6.1,��
2021/04/26,18:10,0.174,0.157,0.260,0.246,0.239,0.137,0.084,�k,5.2,��
2021/04/26,18:20,0.175,0.156,0.258,0.245,0.239,0.136,0.084,�k�k��,4.4,��
2021/04/26,18:30,0.176,0.156,0.259,0.247,0.239,0.137,0.083,�k,5.1,��
2021/04/26,18:40,0.174,0.157,0.260,0.245,0.238,0.135,0.084,�k,4.8,��
2021/04/26,18:50,0.175,0.157,0.260,0.245,0.239,0.136,0.084,�k,6.3,��
2021/04/26,19:00,0.175,0.157,0.260,0.247,0.239,0.136,0.084,�k,5.5,��
2021/04/26,19:10,0.174,0.156,0.259,0.246,0.238,0.136,0.084,�k,5.2,��
2021/04/26,19:20,0.175,0.156,0.261,0.245,0.239,0.135,0.084,�k�k��,4.8,��
2021/04/26,19:30,0.175,0.157,0.259,0.246,0.238,0.136,0.084,�k�k��,4.4,��
2021/04/26,19:40,0.176,0.157,0.260,0.246,0.238,0.136,0.084,�k�k��,4.7,��
2021/04/26,19:50,0.175,0.156,0.259,0.246,0.239,0.137,0.084,�k�k��,4.4,��
2021/04/26,20:00,0.175,0.157,0.261,0.245,0.239,0.137,0.084,�k�k��,4.6,��
2021/04/26,20:10,0.175,0.157,0.260,0.246,0.238,0.136,0.084,�k�k��,4.7,��
2021/04/26,20:20,0.175,0.156,0.259,0.246,0.238,0.137,0.083,�k�k��,4.3,��
2021/04/26,20:30,0.174,0.158,0.260,0.246,0.239,0.137,0.084,�k��,3.8,��
2021/04/26,20:40,0.174,0.156,0.261,0.246,0.238,0.137,0.084,�k�k��,3.9,��
2021/04/26,20:50,0.175,0.156,0.260,0.245,0.237,0.137,0.084,�k�k��,4.0,��
2021/04/26,21:00,0.175,0.157,0.260,0.246,0.239,0.136,0.083,�k��,3.3,��
2021/04/26,21:10,0.175,0.156,0.260,0.246,0.237,0.136,0.084,�k�k��,4.1,��
2021/04/26,21:20,0.175,0.157,0.259,0.246,0.238,0.135,0.084,�k�k��,4.9,��
2021/04/26,21:30,0.175,0.157,0.260,0.245,0.239,0.135,0.084,�k��,5.8,��
2021/04/26,21:40,0.175,0.157,0.260,0.247,0.238,0.136,0.084,�k��,5.4,��
2021/04/26,21:50,0.176,0.157,0.261,0.245,0.238,0.137,0.084,�k��,5.3,��
2021/04/26,22:00,0.175,0.156,0.261,0.245,0.238,0.136,0.084,�k��,5.0,��
2021/04/26,22:10,0.174,0.156,0.260,0.245,0.239,0.137,0.084,�k��,4.7,��
2021/04/26,22:20,0.174,0.157,0.260,0.246,0.237,0.136,0.084,�k��,5.4,��
2021/04/26,22:30,0.175,0.156,0.260,0.246,0.239,0.136,0.083,�k��,4.8,��
2021/04/26,22:40,0.175,0.156,0.259,0.245,0.238,0.136,0.083,�k�k��,4.8,��
2021/04/26,22:50,0.174,0.155,0.260,0.246,0.238,0.135,0.084,�k��,4.9,��
2021/04/26,23:00,0.175,0.156,0.260,0.247,0.238,0.136,0.084,�k��,5.0,��
2021/04/26,23:10,0.176,0.156,0.260,0.246,0.237,0.136,0.084,�k�k��,5.2,��
2021/04/26,23:20,0.175,0.156,0.259,0.246,0.238,0.136,0.084,�k�k��,4.6,��
2021/04/26,23:30,0.174,0.156,0.260,0.247,0.239,0.135,0.084,�k�k��,4.8,��
2021/04/26,23:40,0.174,0.157,0.260,0.246,0.238,0.136,0.084,�k�k��,5.0,��
2021/04/26,23:50,0.175,0.156,0.258,0.246,0.238,0.136,0.084,�k��,5.4,��
